EHI
0 0 0 0 0 0 0 0 0 0 0 0 0 0 0 0 0 0 0 0 0 0 0 0 0 0 0 0 0 0 0 0 0 0 0 0 0 0 0 0 0 0 0 0
0 0 0 0 0 0 0 0 0 0 0 0 0 0 0 0 0 0 0 0 0 0 0 0 0 0 0 0 0 0 0 0 0 0 0 0 0 0 0 0 0 0 0 0
0 0 0 0 0 0 0 0 0 0 0 0 0 0 0 0 0 0 0 0 0 0 0 0 0 0 0 0 0 0 0 0 0 0 0 0 0 0 0 0 0 0 0 0
0 0 0 0 0 0 0 0 0 0 0 0 0 0 0 0 0 0 0 0 0 0 0 0 0 0 0 0 0 0 0 0 0 0 0 0 0 0 0 0 0 0 0 0
0 0 0 0 0 0 0 0 0 0 0 0 0 0 0 0 0 0 0 0 0 0 0 0 0 0 0 0 0 0 0 0 0 0 0 0 0 0 0 0 0 0 0 0
0 0 0 0 0 0 0 0 0 0 0 0 0 0 0 0 0 0 0 0 0 0 0 0 0 0 0 0 0 0 0 0 0 0 0 0 0 0 0 0 0 0 0 0
0 0 0 0 0 0 0 0 0 0 0 0 0 0 0 0 0 0 0 0 0 0 0 0 0 0 0 0 0 0 0 0 0 0 0 0 0 0 0 0 0 0 0 0
0 0 0 0 0 0 0 0 0 0 0 0 0 0 0 0 0 0 0 0 0 0 0 0 0 0 0 0 0 0 0 0 0 0 0 0 0 0 0 0 0 0 0 0
0 0 0 0 0 0 0 0 0 0 0 0 0 0 0 0 0 0 0 0 0 0 0 0 0 0 0 0 0 0 0 0 0 0 0 0 0 0 0 0 0 0 0 0
0 0 0 0 0 0 0 0 0 0 0 0 0 0 0 0 0 0 0 0 0 0 0 0 0 0 0 0 0 0 0 0 0 0 0 0 0 0 0 0 0 0 0 0
0 0 0 0 0 0 0 0 0 0 0 0 0 0 0 0 0 0 0 0 0 0 0 0 0 0 0 0 0 0 0 0 0 0 0 0 0 0 0 0 0 0 0 0
0 0 0 0 0 0 0 0 0 0 0 0 0 0 0 0 0 0 0 0 0 0 0 0 0 0 0 0 0 0 0 0 0 0 0 0 0 0 0 0 0 0 0 0
0 0 0 0 0 0 0 0 0 0 0 0 0 0 0 0 0 0 0 0 0 0 0 0 0 0 0 0 0 0 0 0 0 0 0 0 0 0 0 0 0 0 0 0
0 0 0 0 0 0 0 0 0 0 0 0 0 0 0 0 0 0 0 0 0 0 0 0 0 0 0 0 0 0 0 0 0 0 0 0 0 0 0 0 0 0 0 0
0 0 0 0 0 0 0 0 0 0 0 0 0 0 0 0 0 0 0 0 0 0 0 0 0 0 0 0 0 0 0 0 0 0 0 0 0 0 0 0 0 0 0 0
0 0 0 0 0 0 0 0 0 0 0 0 0 0 0 0 0 0 0 0 0 0 0 0 0 0 0 0 0 0 0 0 0 0 0 0 0 0 0 0 0 0 0 0
0 0 0 0 0 0 0 0 0 0 0 0 0 0 0 0 0 0 0 0 0 0 0 0 0 0 0 0 0 0 0 0 0 0 0 0 0 0 0 0 0 0 0 0
0 0 0 0 0 0 0 0 0 0 0 0 0 0 0 0 0 0 0 0 0 0 0 0 0 0 0 0 0 0 0 0 0 0 0 0 0 0 0 0 0 0 0 0
0 0 0 0 0 0 0 0 0 0 0 0 0 0 0 0 0 0 0 0 0 0 0 0 0 0 0 0 0 0 0 0 0 0 0 0 0 0 0 0 0 0 0 0
0 0 0 0 0 0 0 0 0 0 0 0 0 0 0 0 0 0 0 0 0 0 0 0 0 0 0 0 0 0 0 0 0 0 0 0 0 0 0 0 0 0 0 0
0 0 0 0 0 0 0 0 0 0 0 0 0 0 0 0 0 0 0 0 0 0 0 0 0 0 0 0 0 0 0 0 0 0 0 0 0 0 0 0 0 0 0 0
0 0 0 0 0 0 0 0 0 0 0 0 0 0 0 0 0 0 0 0 0 0 0 0 0 0 0 0 0 0 0 0 0 0 0 0 0 0 0 0 0 0 0 0
0 0 0 0 0 0 0 0 0 0 0 0 0 0 0 0 0 0 0 0 0 0 0 0 0 0 0 0 0 0 0 0 0 0 0 0 0 0 0 0 0 0 0 0
0 0 0 0 0 0 0 0 0 0 0 0 0 0 0 0 0 0 0 0 0 0 0 0 0 0 0 0 0 0 0 0 0 0 0 0 0 0 0 0 0 0 0 0
0 0 0 0 0 0 0 0 0 0 0 0 0 0 0 0 0 0 0 0 0 0 0 0 0 0 0 0 0 0 0 0 0 0 0 0 0 0 0 0 0 0 0 0
0 0 0 0 0 0 0 0 0 0 0 0 0 0 0 0 0 0 0 0 0 0 0 0 0 0 0 0 0 0 0 0 0 0 0 0 0 0 0 0 0 0 0 0
0 0 0 0 0 0 0 0 0 0 0 0 0 0 0 0 0 0 0 0 0 0 0 0 0 0 0 0 0 0 0 0 0 0 0 0 0 0 0 0 0 0 0 0
Wind_Speed
4 5 5 5 6 6 5 7 7 6 6 8 10 10 9 7 6 5 4 3 3 2 2 2 2 2 0 1 1 2 3 4 5 5 5 6 6 6 6 7 7 7 7 7
2 4 4 3 6 7 6 6 6 5 6 6 7 6 6 7 7 6 5 4 3 2 2 2 2 1 1 0 0 1 3 3 4 5 6 6 6 6 6 6 7 7 7 7
2 3 0 6 8 9 6 6 7 8 8 4 5 9 10 9 8 7 6 5 4 3 3 3 3 2 2 2 1 2 2 3 4 4 5 6 6 6 6 6 6 7 7 7
1 2 3 9 5 7 7 6 7 6 6 10 10 10 8 9 9 8 7 6 5 3 3 2 2 3 3 2 2 2 1 2 3 4 4 5 5 6 5 4 5 5 7 7
3 1 6 7 2 4 4 5 6 7 7 8 5 4 3 6 8 9 8 7 5 4 4 2 3 4 4 3 2 1 0 1 2 2 3 4 5 5 4 4 5 5 5 7
3 0 4 7 3 3 3 5 5 7 9 8 8 5 7 7 8 8 7 6 5 4 3 3 4 5 5 3 2 2 2 1 1 1 2 3 3 3 3 3 3 4 6 6
3 3 8 7 1 4 2 7 4 7 9 11 11 10 7 8 8 8 8 7 6 5 4 4 5 6 5 4 4 4 3 1 0 1 1 1 2 2 3 3 4 4 5 5
4 3 8 5 5 6 10 5 3 6 8 10 9 6 6 9 9 9 8 7 6 5 4 4 5 6 6 5 5 4 3 2 1 1 1 1 2 3 3 3 4 4 4 4
9 9 8 6 9 8 5 5 4 6 6 8 7 7 8 9 9 9 9 8 6 6 5 4 5 6 7 6 5 4 3 2 2 1 0 1 1 2 2 2 2 2 2 3
3 7 6 6 7 5 5 6 5 6 7 8 8 9 9 9 9 9 8 8 6 6 6 5 6 6 7 6 6 5 4 3 3 2 1 0 1 1 1 1 1 1 1 1
3 6 6 5 6 7 6 5 4 4 6 9 10 9 10 10 10 9 8 7 7 7 8 7 6 7 7 6 6 5 4 4 3 3 3 2 1 1 1 1 2 2 1 1
5 6 4 6 5 3 4 5 5 5 5 6 9 11 11 10 10 10 9 8 7 8 8 8 7 7 7 7 7 6 4 4 3 3 3 2 2 1 2 2 2 2 3 3
5 7 5 5 4 2 3 5 5 5 6 6 6 8 10 9 9 9 9 10 11 10 9 8 7 8 8 7 7 7 6 5 4 4 4 3 3 3 2 3 3 4 4 4
7 5 4 5 6 6 4 4 3 3 4 5 5 6 7 8 8 9 11 12 12 10 9 9 8 9 8 8 8 7 6 6 6 5 4 4 4 4 3 3 2 3 4 6
11 7 4 5 7 9 7 5 4 3 4 4 3 5 6 8 9 11 11 11 10 9 9 9 9 9 8 8 8 8 7 5 5 4 4 4 4 4 4 4 3 3 2 3
8 8 9 10 10 10 9 8 6 6 6 5 5 6 7 9 9 9 9 10 10 12 11 11 11 10 9 9 9 7 6 9 8 5 4 4 4 4 4 4 4 4 4 4
8 11 12 12 11 10 9 8 7 7 7 7 7 7 7 6 6 7 8 10 12 13 13 12 12 10 9 10 9 7 6 7 9 5 5 5 4 5 5 4 4 5 5 6
5 5 5 6 8 9 10 10 10 9 8 8 8 6 5 6 8 9 9 8 9 9 10 11 11 9 10 10 9 7 6 6 5 5 5 5 5 5 5 5 5 6 4 4
7 8 9 9 9 8 8 10 10 10 9 9 8 7 6 7 9 9 7 7 9 11 10 10 13 11 10 12 11 7 7 7 6 5 5 6 6 5 5 5 5 5 5 4
8 8 9 10 10 10 10 10 11 10 10 10 9 9 8 8 7 7 6 8 10 9 8 9 11 10 11 12 13 8 8 8 8 6 6 5 5 6 5 6 6 5 5 5
7 7 9 9 9 10 10 11 11 12 12 11 10 10 10 10 8 6 5 7 8 7 7 11 9 8 9 10 13 8 9 8 8 7 7 6 6 6 6 6 6 5 5 5
5 6 7 7 8 9 9 9 10 11 12 12 12 11 11 11 11 8 6 6 7 7 6 6 7 10 12 13 9 9 9 9 8 7 7 7 7 7 6 6 6 6 5 5
3 4 5 6 7 7 7 8 9 9 10 11 12 12 11 9 7 7 9 8 8 9 7 6 9 14 16 11 8 9 10 10 9 8 8 8 7 7 7 7 6 6 6 5
3 4 5 5 5 6 8 8 8 7 8 8 8 10 10 9 8 7 7 13 15 12 6 8 12 14 15 8 8 9 9 9 8 8 8 7 7 7 7 7 6 6 6 7
3 3 4 5 5 5 6 7 7 7 7 7 8 9 7 6 7 9 10 11 16 13 7 7 9 10 7 5 7 8 8 8 8 8 8 7 7 7 7 7 7 6 6 6
3 3 4 4 4 4 3 3 4 5 5 6 7 7 7 7 8 8 8 10 13 14 9 7 6 5 2 2 4 5 6 6 7 7 8 8 8 8 7 7 9 7 6 6
4 4 3 4 4 4 3 3 4 4 4 5 7 7 7 7 7 8 10 9 9 9 8 8 7 6 4 3 2 2 3 3 4 5 6 6 6 7 7 8 7 6 6 6
Wind_Direction
215 208 173 191 198 190 180 189 196 230 220 224 208 203 204 203 201 193 195 202 208 224 253 263 285 304 323 7 4 19 26 20 8 359 0 4 8 8 9 11 13 9 13 15
269 235 202 224 217 204 211 206 211 222 248 232 197 187 192 193 189 190 194 200 202 197 218 238 244 232 168 134 12 38 36 16 5 8 8 7 5 8 11 11 9 17 21 20
286 294 33 272 232 201 211 208 188 210 228 183 178 194 197 196 194 193 193 195 192 194 214 227 219 188 170 172 121 69 42 16 11 10 10 5 7 13 12 10 15 21 19 23
107 57 246 253 250 187 200 226 206 205 198 183 195 200 199 189 186 190 189 190 192 197 213 218 187 162 153 140 115 91 46 11 9 13 10 6 12 12 8 9 15 18 21 23
103 244 283 291 255 165 179 259 217 199 198 196 174 134 235 206 182 183 187 189 193 194 197 186 164 156 139 128 121 112 62 349 351 10 13 11 10 3 2 15 21 22 22 26
106 175 257 261 264 136 96 284 246 188 186 177 141 166 238 208 179 180 183 184 184 183 178 164 165 152 138 148 149 176 215 241 290 352 16 10 4 4 5 21 25 30 34 26
159 234 267 258 185 91 127 249 243 186 181 172 181 201 207 175 177 180 182 187 179 172 178 182 168 152 150 170 195 210 205 196 244 322 345 10 17 15 18 30 36 37 38 26
155 200 263 229 147 183 219 235 219 192 187 187 202 203 177 173 180 179 180 183 177 174 191 189 171 159 168 197 214 208 190 183 211 292 323 46 45 28 30 43 48 38 37 25
183 212 237 206 204 218 192 207 218 197 200 185 184 182 178 182 183 184 183 186 182 180 192 197 188 174 182 208 206 195 187 196 208 214 345 44 69 57 45 45 53 40 41 30
228 263 256 241 245 252 215 218 222 201 188 174 181 182 182 184 186 187 189 189 186 181 193 206 205 200 199 199 192 185 193 204 202 193 214 345 74 88 90 71 60 44 41 25
268 286 307 291 255 250 246 238 226 203 187 184 180 185 186 188 192 194 194 194 187 188 199 210 206 207 208 196 182 183 194 203 199 194 192 193 197 214 189 213 200 188 210 218
243 257 233 260 275 248 229 237 224 205 200 197 188 191 191 195 197 196 196 194 194 199 204 208 203 207 208 197 184 181 193 201 200 195 196 192 193 263 298 257 262 229 210 200
273 282 240 273 321 326 245 246 233 209 200 204 207 199 195 199 201 199 199 196 199 203 205 203 201 208 209 197 187 186 192 197 197 197 197 197 196 201 242 289 281 270 253 237
338 355 6 347 330 328 314 293 258 237 224 210 204 202 201 204 202 201 204 204 204 203 203 200 200 209 207 194 189 194 195 198 193 198 199 200 204 205 204 211 243 267 260 244
359 4 347 331 354 1 356 359 358 322 294 267 232 211 206 207 211 213 211 205 200 201 205 201 204 213 203 191 191 194 193 196 195 197 200 202 205 205 207 211 218 230 244 258
337 6 13 15 10 2 3 2 348 321 304 282 262 242 226 218 219 218 209 195 192 205 209 205 210 212 195 189 191 192 196 202 193 193 200 203 205 207 212 214 217 216 221 224
17 14 6 3 358 355 354 347 336 324 316 301 282 265 246 232 229 227 219 207 205 209 207 205 210 205 191 189 188 191 192 201 200 194 200 203 205 210 213 213 216 220 225 218
19 11 1 353 351 350 348 348 343 336 329 313 303 292 265 238 231 231 227 215 213 220 216 210 205 196 192 191 189 188 188 192 192 197 203 208 212 213 211 213 218 223 230 228
9 9 6 4 359 355 352 349 342 337 333 334 330 312 285 262 249 241 226 208 210 223 227 216 206 195 195 196 188 187 189 192 195 202 205 214 218 217 214 216 220 221 218 214
7 5 5 3 4 3 358 351 346 346 345 344 343 336 326 309 289 261 230 220 222 224 218 207 203 201 200 199 191 189 193 196 199 202 205 208 213 218 217 217 219 221 218 215
1 0 1 1 359 0 360 355 354 352 349 350 350 341 328 321 315 294 257 249 251 236 220 209 205 204 202 198 193 193 196 199 201 203 205 209 213 217 219 220 222 222 221 219
349 351 352 352 353 350 350 353 356 355 356 354 352 348 344 339 335 322 287 268 279 255 227 218 214 210 206 198 194 195 200 202 203 203 205 207 209 214 218 219 221 223 222 220
333 337 341 343 340 335 341 350 352 354 355 353 352 349 343 334 333 332 320 315 310 282 248 228 224 216 207 198 196 198 202 204 205 205 207 208 209 211 214 218 219 220 220 220
326 328 327 329 339 347 343 338 340 342 341 340 345 345 344 340 336 332 317 321 325 310 273 252 235 223 210 202 198 201 204 206 207 207 208 209 210 211 213 214 217 218 219 220
298 309 319 330 334 326 318 323 333 337 340 338 337 338 340 335 327 325 329 333 336 336 318 297 272 245 220 208 204 206 207 208 208 206 208 208 210 213 214 213 215 216 216 216
273 278 280 281 282 288 300 315 320 323 329 331 331 332 333 333 332 334 338 341 347 349 346 340 333 306 274 241 224 217 214 216 216 214 213 212 213 213 215 216 217 216 215 215
276 277 284 294 292 286 288 294 299 304 310 315 317 321 326 330 334 338 341 344 347 351 351 352 353 351 344 331 301 268 242 227 221 219 218 218 217 217 218 218 217 215 213 212